Retour au catalogue

ATLAS 5 CENTAUR DEB

LostHEO
NORAD 44000·DEBRIS·🇺🇸 United States

Lancé Sep 17, 2014 depuis Cape Canaveral Space Force Station

Loading…

Prochains Passages (prochaines 24 heures)

TLE

PériméSource: Space-Track

Époque: Oct 3, 2021, 04:25 UTC

1 44000U 14055BF  21276.18466631 -.00000172  00000-0  00000+0 0  9996
2 44000  21.2284 296.2178 5152289 254.5044  44.8515  1.85296986 20823

Suivez ATLAS 5 CENTAUR DEB en temps réel avec AllMySat

Download on the App Store